Location: Unspecified
(0.0000°N, 0.0000°E)
Time: 16:21:12
(UTC+00:00)

Vanguard 2 Rocket - Pass Details

Date: 27 November 2019
Orbit: 554 x 3326 km, 32.9° (Epoch: 13 December)

Event Time Altitude Azimuth Distance (km) Brightness Sun altitude
Rises 10:21:01 0° 252° (WSW) 5,862 10.9 60.1°
Reaches altitude 10° 10:26:02 10° 238° (WSW) 5,290 10.9 61.0°
Maximum altitude 10:37:50 22° 193° (SSW) 5,027 11.3 62.9°
Drops below altitude 10° 10:51:53 10° 148° (SSE) 6,286 11.7 64.9°
Sets 10:58:54 0° 134° (SE) 7,204 11.8 65.8°
